Regional Weather Roundup
Issued by NWS

Home | Current Version | Previous Version | Text Only | Print | Product List | Glossary On
Versions: 1 2 3 4 5 6 7 8 9 10 11 12 13 14 15 16 17 18 19 20 21 22 23 24 25 26 27
000
ASUS44 KLIX 161313
RWRLA
LOUISIANA WEATHER ROUNDUP
NATIONAL WEATHER SERVICE NEW ORLEANS LA
700 AM CST TUE JAN 16 2018

NOTE: "FAIR" INDICATES FEW OR NO CLOUDS BELOW 12,000 FEET WITH NO
      SIGNIFICANT WEATHER AND/OR OBSTRUCTIONS TO VISIBILITY.
      SKY/WX - SKY CONDITION AND SIGNIFICANT WEATHER.
      TMP - AIR TEMPERATURE.    DP   - DEWPOINT TEMPERATURE.
      RH  - RELATIVE HUMIDITY.  PRES - PRESSURE.
      HX  - HEAT INDEX.         WCI  - WIND CHILL INDEX.

*  THESE STATIONS ARE NOT NWS OR FAA STATIONS AND ARE NOT UNDER
   NWS QUALITY CONTROL.

LAZ040-048-061>063-065-066-069-161400-
SOUTHEAST LOUISIANA

CITY           SKY/WX    TMP DP  RH WIND       PRES   REMARKS
N.O. INTL ARPT MOCLDY    41  41 100 N3        30.39S FOG
N.O. LAKEFRONT FAIR      46  45  96 N3        30.40S FOG
N.O. DOWNTOWN* NOT AVBL
RESERVE*       CLOUDY    41  39  93 CALM      30.39S FOG
SLIDELL        FOG       34  33  96 N3        30.40S VSB 1/4
BATON ROUGE    MOCLDY    40  35  83 N13       30.44R WCI  32
BOOTHVILLE     FAIR      48  46  93 N8        30.39R
BELLE CHASSE   MOCLDY    38  38 100 CALM      30.39S FOG
BOGALUSA*      CLOUDY    39  36  88 NE7       30.43S WCI  34
GALLIANO*      PTSUNNY   44  42  91 N3        30.39S
NEW ROADS*     CLOUDY    39  33  78 N12G20    30.48R WCI  32
GONZALES*      FAIR      41  41  98 N7        30.42R FOG
HAMMOND*       FAIR      37  37 100 N5        30.43R WCI  34
HOUMA*         PTCLDY    43  41  93 N6        30.39S
PORT FOURCHON* SUNNY     50  48  93 N10       30.39R

$$

LAZ041-044-053-054-161400-
SOUTHWEST LOUISIANA

CITY           SKY/WX    TMP DP  RH WIND       PRES   REMARKS
LAKE CHARLES   LGT RAIN  42  40  92 N21G30    30.47R FOG
LAFAYETTE      CLOUDY    44  36  73 N18       30.45R
PATTERSON      CLOUDY    44  42  93 N9        30.42R
SALT POINT       N/A     44  42  93 CALM      30.39R
NEW IBERIA     CLOUDY    45  35  68 N14       30.43R
CHENAULT AIRPK LGT RAIN  45  41  87 N13G25    30.47R FOG

$$

LAZ027-028-161400-
CENTRAL LOUISIANA

CITY           SKY/WX    TMP DP  RH WIND       PRES   REMARKS
FORT POLK      LGT SNOW  33  31  93 N17G25    30.54R FOG     WCI  21
ALEXANDRIA INT MIX PCPN  32  28  85 N15       30.55R WCI  22
ALEXANDRIA     CLOUDY    31  25  78 NE12G24   30.55R WCI  22

$$

LAZ001-002-161400-
NORTHWEST LOUISIANA

CITY           SKY/WX    TMP DP  RH WIND       PRES   REMARKS
SHREVEPORT     LGT SNOW  22  20  92 N14       30.68R FOG     WCI   9
BARKSDALE AFB  LGT SNOW  22  20  90 N15G24    30.67R FOG     WCI   9
DTN SHREVEPORT LGT SNOW N/A N/A N/A N16       30.68R VSB 1

$$

LAZ014-016-161400-
NORTHEAST LOUISIANA

CITY           SKY/WX    TMP DP  RH WIND       PRES   REMARKS
MONROE         LGT SNOW  25  21  85 N16G25    30.65R FOG     WCI  12
TALLULAH       LGT SNOW  26  24  92 N13G24    30.61R FOG     WCI  15

$$





USA.gov is the U.S. government's official web portal to all federal, state and local government web resources and services.